Location: Buckeye Ditch
(40.9104°N, 122.9517°W)
Time: 19:36:19
(UTC+00:00)

BlueWalker 3 - Pass Details

Date: 24 June 2024
Orbit: 480 x 491 km, 53.2° (Epoch: 24 July)

Event Time Altitude Azimuth Distance (km) Brightness Sun altitude
Rises 06:45:40 0° 304° (NW) 2,541 6.4 -22.5°
Reaches altitude 10° 06:48:59 10° 335° (NNW) 1,659 5.7 -22.7°
Maximum altitude 06:50:37 12° 1° (N) 1,515 5.2 -22.8°
Drops below altitude 10° 06:52:15 10° 27° (NNE) 1,658 5.1 -22.9°
Sets 06:55:33 0° 59° (ENE) 2,537 5.7 -23.1°
